"SCET";"TARGET";"ELECTRON_DENSITY";"ERROR_FLAG";"ELECTRON_DENSITY_ERROR";"FREQ_FCE";"MEASURED_VALUE";"MEASURED_ITEM";"FREQ_PLASMA";"FREQ_UPPER_HYBRID";"FREQ_R_EQUALS_ZERO";"FREQ_L_EQUALS_ZERO";"ORBIT_NUMBER";"SATURN_RADIUS";"SATURN_IAU_LONGITUDE";"SATURN_SLS4_S_LONGITUDE";"SATURN_SLS4_N_LONGITUDE";"SATURN_SLS5_S_LONGITUDE";"SATURN_SLS5_N_LONGITUDE";"SATURN_LOCAL_TIME";"SATURN_KRONOGRAPHIC_LATITUDE";"SATURN_MAGNETIC_LATITUDE";"SATURN_L";"SATURN_L_OFFSET";"SATURN_SOLAR_EQUATORIAL_X";"SATURN_SOLAR_EQUATORIAL_Y";"SATURN_SOLAR_EQUATORIAL_Z";"SATURN_ALTITUDE";"ENCELADUS_ENCOUNTER_NUMBER";"ENCELADUS_RADIUS";"ENCELADUS_COROTATIONAL_X";"ENCELADUS_COROTATIONAL_Y";"ENCELADUS_COROTATIONAL_Z";"ENCELADUS_TRUE_ANOMALY";"ENCELADUS_PERIAPSIS_TIME";"JUPITER_RADIUS";"JUPITER_SYSTEMIII_LONGITUDE";"JUPITER_MAGNETIC_LATITUDE";"JUPITER_MAGNETIC_LOCAL_TIME";"JUPITER_L";"IO_PHASE";"EARTH_RADIUS";"EARTH_MAGNETIC_LATITUDE";"EARTH_LOCAL_TIME";"EARTH_L"
"[UTC]";"[0=Saturn, 1=Enceladus, 2=Jupiter, 3=Earth]";"[cm-3]";"[0=automated, 1=manual]";"[normalized density error]";"[Hz]";"[Hz]";"[0=upper hybrid frequency, 1=plasma frequency cutoff]";"[Hz]";"[Hz]";"[Hz]";"[Hz}";"[0, A, B, C, 3, 4, ... , 292, 293]";"[Rs where 1Rs=60268km]";"[degrees]";"[degrees]";"[degrees]";"[degrees]";"[degrees]";"[hours]";"[degrees]";"[degrees where offset=2293km north]";"[Rs where 1Rs=60268km]";"[Rs where 1Rs=60268km and offset=2293km north]";"[Rs where 1Rs=60268km]";"[Rs where 1Rs=60268km]";"[Rs where 1Rs=60268km]";"[km where ellipsoid a,b=60268km and c=54364km]";"[E0, E1, E2, ... , E21, E22]";"[Renc where 1Renc=252.1km]";"[Renc where 1Renc=252.1km]";"[Renc where 1Renc=252.1km]";"[Renc where 1Renc=252.1km]";"[degrees]";"[UTC]";"[Rj where 1Rj=71492km]";"[degrees]";"[degrees using JRM09 model]";"[hours using JRM09 model]";"[Rj where 1Rj=71492km]";"[degrees]";"[Re where 1Re=6378.1366km]";"[degrees]";"[hours]";"[Re where 1Re=6378.1366km]"
2016-12-04T07:00:19.456Z;0;1.8870e-03;1;     0.251;  7164.052;    390.086; 1;    390.086;   7174.664;   7185.229;     21.178;251;   5.414;  41.927;;; 136.504;  48.802;   7.201;  63.529;  63.348;  27.250;   5.377;   0.747;  -2.295;   4.847;;;;;;;;;;;;;;;;;;
2016-12-04T07:01:23.455Z;0;1.8870e-03;1;     1.011;  7200.676;    390.086; 1;    390.086;   7211.234;   7221.747;     21.071;251;   5.405;  42.281;;; 136.854;  49.148;   7.217;  63.538;  63.357;  27.220;   5.367;   0.755;  -2.287;   4.838;;;;;;;;;;;;;;;;;;
2016-12-04T07:02:27.455Z;0;1.9600e-03;1;     0.249;  7237.188;    397.601; 1;    397.601;   7248.102;   7258.966;     21.778;251;   5.395;  42.635;;; 137.204;  49.495;   7.234;  63.548;  63.367;  27.189;   5.357;   0.763;  -2.279;   4.830;;;;;;;;;;;;;;;;;;
2016-12-04T07:03:31.454Z;0;1.9600e-03;1;     0.499;  7273.980;    397.601; 1;    397.601;   7284.838;   7295.649;     21.669;251;   5.385;  42.987;;; 137.553;  49.842;   7.250;  63.557;  63.375;  27.157;   5.348;   0.771;  -2.271;   4.822;;;;;;;;;;;;;;;;;;
2016-12-04T07:04:35.454Z;0;1.3910e-03;1;     1.007;  7310.940;    334.859; 1;    334.859;   7318.605;   7326.246;     15.305;251;   5.376;  43.338;;; 137.901;  50.189;   7.267;  63.565;  63.383;  27.124;   5.338;   0.779;  -2.263;   4.813;;;;;;;;;;;;;;;;;;
2016-12-04T07:05:39.454Z;0;1.7480e-03;1;     0.522;  7353.052;    375.479; 1;    375.479;   7362.633;   7372.176;     19.124;251;   5.366;  43.689;;; 138.248;  50.535;   7.284;  63.573;  63.391;  27.090;   5.328;   0.788;  -2.254;   4.805;;;;;;;;;;;;;;;;;;
2016-12-04T07:06:43.453Z;0;1.6830e-03;1;     1.070;  7386.008;    368.382; 1;    368.382;   7395.189;   7404.336;     18.328;251;   5.356;  44.038;;; 138.593;  50.882;   7.300;  63.581;  63.399;  27.056;   5.319;   0.796;  -2.246;   4.797;;;;;;;;;;;;;;;;;;
2016-12-04T07:07:47.453Z;0;1.8870e-03;1;     0.502;  7423.976;    390.086; 1;    390.086;   7434.217;   7444.417;     20.440;251;   5.346;  44.386;;; 138.938;  51.229;   7.317;  63.588;  63.406;  27.020;   5.309;   0.804;  -2.238;   4.788;;;;;;;;;;;;;;;;;;
2016-12-04T07:08:51.452Z;0;1.6200e-03;1;     0.268;  7462.000;    361.419; 1;    361.419;   7470.748;   7479.464;     17.464;251;   5.337;  44.733;;; 139.281;  51.576;   7.334;  63.595;  63.412;  26.984;   5.299;   0.812;  -2.230;   4.780;;;;;;;;;;;;;;;;;;
2016-12-04T07:09:55.452Z;0;1.7480e-03;1;     0.522;  7500.416;    375.479; 1;    375.479;   7509.809;   7519.167;     18.750;251;   5.327;  45.079;;; 139.624;  51.924;   7.351;  63.602;  63.419;  26.947;   5.289;   0.821;  -2.222;   4.771;;;;;;;;;;;;;;;;;;
2016-12-04T07:10:59.452Z;0;1.7480e-03;1;     0.261;  7539.140;    375.479; 1;    375.479;   7548.484;   7557.794;     18.654;251;   5.317;  45.424;;; 139.965;  52.265;   7.368;  63.608;  63.424;  26.909;   5.280;   0.829;  -2.213;   4.763;;;;;;;;;;;;;;;;;;
2016-12-04T07:12:03.451Z;0;1.7480e-03;1;     0.522;  7617.456;    375.479; 1;    375.479;   7626.705;   7635.919;     18.463;251;   5.307;  45.768;;; 140.306;  52.606;   7.385;  63.613;  63.430;  26.870;   5.270;   0.837;  -2.205;   4.754;;;;;;;;;;;;;;;;;;
2016-12-04T07:13:07.451Z;0;1.6830e-03;1;     0.266;  7656.936;    368.382; 1;    368.382;   7665.792;   7674.619;     17.682;251;   5.298;  46.111;;; 140.645;  52.945;   7.402;  63.619;  63.435;  26.831;   5.260;   0.845;  -2.197;   4.746;;;;;;;;;;;;;;;;;;
2016-12-04T07:14:11.450Z;0;1.2880e-03;1;     0.820;  7696.920;    322.320; 1;    322.320;   7703.667;   7710.395;     13.474;251;   5.288;  46.453;;; 140.983;  53.283;   7.420;  63.623;  63.439;  26.790;   5.250;   0.853;  -2.189;   4.737;;;;;;;;;;;;;;;;;;
2016-12-04T07:15:15.450Z;0;1.5010e-03;1;     0.557;  7736.820;    347.886; 1;    347.886;   7744.638;   7752.431;     15.611;251;   5.278;  46.794;;; 141.321;  53.621;   7.437;  63.628;  63.443;  26.748;   5.240;   0.861;  -2.180;   4.729;;;;;;;;;;;;;;;;;;
2016-12-04T07:16:19.450Z;0;1.5010e-03;1;     0.768;  7777.084;    347.886; 1;    347.886;   7784.861;   7792.614;     15.531;251;   5.268;  47.134;;; 141.657;  53.957;   7.454;  63.631;  63.446;  26.706;   5.231;   0.870;  -2.172;   4.720;;;;;;;;;;;;;;;;;;
2016-12-04T07:17:23.449Z;0;1.5010e-03;1;     0.768;  7817.656;    347.886; 1;    347.886;   7825.393;   7833.106;     15.450;251;   5.258;  47.473;;; 141.992;  54.292;   7.472;  63.635;  63.449;  26.663;   5.221;   0.878;  -2.164;   4.711;;;;;;;;;;;;;;;;;;
2016-12-04T07:18:27.449Z;0;1.4450e-03;1;     0.492;  7858.480;    341.310; 1;    341.310;   7865.889;   7873.276;     14.796;251;   5.249;  47.811;;; 142.326;  54.626;   7.489;  63.638;  63.452;  26.619;   5.211;   0.886;  -2.156;   4.703;;;;;;;;;;;;;;;;;;
2016-12-04T07:19:31.448Z;0;1.2400e-03;1;     0.225;  7899.696;    316.228; 1;    316.228;   7906.022;   7912.334;     12.639;251;   5.239;  48.147;;; 142.659;  54.959;   7.507;  63.640;  63.454;  26.573;   5.201;   0.894;  -2.147;   4.694;;;;;;;;;;;;;;;;;;
2016-12-04T07:20:35.448Z;0;1.2400e-03;1;     0.225;  7941.248;    316.228; 1;    316.228;   7947.542;   7953.820;     12.573;251;   5.229;  48.483;;; 142.991;  55.288;   7.525;  63.642;  63.456;  26.527;   5.192;   0.902;  -2.139;   4.685;;;;;;;;;;;;;;;;;;
2016-12-04T07:21:39.448Z;0;1.2880e-03;1;     0.297;  7982.855;    322.320; 1;    322.320;   7989.360;   7995.849;     12.993;251;   5.219;  48.818;;; 143.322;  55.613;   7.542;  63.643;  63.457;  26.480;   5.182;   0.911;  -2.131;   4.677;;;;;;;;;;;;;;;;;;
2016-12-04T07:22:43.447Z;0;1.1940e-03;1;     0.229;  8024.855;    310.251; 1;    310.251;   8030.851;   8036.833;     11.977;251;   5.209;  49.151;;; 143.652;  55.935;   7.560;  63.644;  63.457;  26.432;   5.172;   0.919;  -2.122;   4.668;;;;;;;;;;;;;;;;;;
2016-12-04T07:23:47.447Z;0;1.1490e-03;1;     0.234;  8067.276;    304.387; 1;    304.387;   8073.017;   8078.745;     11.469;251;   5.200;  49.484;;; 143.981;  56.255;   7.578;  63.645;  63.458;  26.384;   5.162;   0.927;  -2.114;   4.659;;;;;;;;;;;;;;;;;;
2016-12-04T07:24:51.446Z;0;1.2400e-03;1;     0.225;  8109.864;    316.228; 1;    316.228;   8116.027;   8122.176;     12.312;251;   5.190;  49.816;;; 144.309;  56.573;   7.596;  63.645;  63.457;  26.334;   5.152;   0.935;  -2.106;   4.650;;;;;;;;;;;;;;;;;;
2016-12-04T07:25:55.446Z;0;1.4450e-03;1;     0.280;  8152.704;    341.310; 1;    341.310;   8159.845;   8166.968;     14.264;251;   5.180;  50.146;;; 144.636;  56.889;   7.614;  63.644;  63.456;  26.283;   5.143;   0.943;  -2.097;   4.641;;;;;;;;;;;;;;;;;;
2016-12-04T07:26:59.445Z;0;1.6200e-03;1;     0.268;  8195.992;    361.419; 1;    361.419;   8203.957;   8211.898;     15.907;251;   5.170;  50.476;;; 144.962;  57.203;   7.632;  63.643;  63.455;  26.231;   5.133;   0.951;  -2.089;   4.633;;;;;;;;;;;;;;;;;;
2016-12-04T07:28:03.445Z;0;1.7480e-03;1;     0.261;  8283.296;    375.479; 1;    375.479;   8291.802;   8300.281;     16.986;251;   5.160;  50.804;;; 145.287;  57.514;   7.650;  63.642;  63.453;  26.178;   5.123;   0.959;  -2.081;   4.624;;;;;;;;;;;;;;;;;;
2016-12-04T07:29:07.445Z;0;1.8870e-03;1;     0.251;  8327.340;    390.086; 1;    390.086;   8336.472;   8345.573;     18.233;251;   5.151;  51.132;;; 145.611;  57.824;   7.668;  63.640;  63.450;  26.125;   5.113;   0.968;  -2.072;   4.615;;;;;;;;;;;;;;;;;;
2016-12-04T07:30:11.444Z;0;1.7480e-03;1;     0.522;  8371.805;    375.479; 1;    375.479;   8380.221;   8388.611;     16.807;251;   5.141;  51.459;;; 145.935;  58.133;   7.687;  63.637;  63.447;  26.070;   5.103;   0.976;  -2.064;   4.606;;;;;;;;;;;;;;;;;;
2016-12-04T07:31:15.444Z;0;1.6830e-03;1;     0.798;  8416.520;    368.382; 1;    368.382;   8424.578;   8432.613;     16.093;251;   5.131;  51.784;;; 146.263;  58.450;   7.705;  63.634;  63.444;  26.015;   5.093;   0.984;  -2.055;   4.597;;;;;;;;;;;;;;;;;;
2016-12-04T07:32:19.443Z;0;1.1060e-03;1;     0.788;  8461.684;    298.633; 1;    298.633;   8466.952;   8472.211;     10.526;251;   5.121;  52.109;;; 146.591;  58.768;   7.723;  63.630;  63.440;  25.958;   5.084;   0.992;  -2.047;   4.588;;;;;;;;;;;;;;;;;;
2016-12-04T07:33:23.443Z;0;1.3380e-03;1;     0.512;  8506.932;    328.530; 1;    328.530;   8513.273;   8519.601;     12.669;251;   5.111;  52.432;;; 146.919;  59.085;   7.742;  63.626;  63.435;  25.900;   5.074;   1.000;  -2.038;   4.579;;;;;;;;;;;;;;;;;;
2016-12-04T07:34:27.443Z;0;1.1940e-03;1;     1.074;  8552.544;    310.251; 1;    310.251;   8558.169;   8563.784;     11.240;251;   5.101;  52.755;;; 147.248;  59.403;   7.760;  63.621;  63.430;  25.842;   5.064;   1.008;  -2.030;   4.570;;;;;;;;;;;;;;;;;;
2016-12-04T07:35:31.442Z;0;1.7480e-03;1;     0.522;  8598.688;    375.479; 1;    375.479;   8606.883;   8615.053;     16.365;251;   5.091;  53.077;;; 147.576;  59.721;   7.779;  63.616;  63.424;  25.782;   5.054;   1.016;  -2.022;   4.561;;;;;;;;;;;;;;;;;;
2016-12-04T07:36:35.442Z;0;1.6830e-03;1;     0.266;  8645.224;    368.382; 1;    368.382;   8653.069;   8660.893;     15.669;251;   5.082;  53.397;;; 147.905;  60.039;   7.798;  63.610;  63.418;  25.722;   5.044;   1.024;  -2.013;   4.552;;;;;;;;;;;;;;;;;;
2016-12-04T07:37:39.441Z;0;1.6830e-03;1;     0.266;  8691.676;    368.382; 1;    368.382;   8699.479;   8707.261;     15.585;251;   5.072;  53.717;;; 148.234;  60.357;   7.816;  63.603;  63.411;  25.660;   5.034;   1.032;  -2.005;   4.543;;;;;;;;;;;;;;;;;;
2016-12-04T07:38:43.441Z;0;1.6830e-03;1;     0.266;  8738.744;    368.382; 1;    368.382;   8746.505;   8754.245;     15.502;251;   5.062;  54.036;;; 148.563;  60.676;   7.835;  63.596;  63.404;  25.597;   5.025;   1.040;  -1.996;   4.534;;;;;;;;;;;;;;;;;;
2016-12-04T07:39:47.441Z;0;1.5590e-03;1;     0.546;  8786.176;    354.588; 1;    354.588;   8793.328;   8800.463;     14.287;251;   5.052;  54.354;;; 148.892;  60.994;   7.854;  63.589;  63.396;  25.534;   5.015;   1.049;  -1.988;   4.525;;;;;;;;;;;;;;;;;;
2016-12-04T07:40:51.440Z;0;1.1940e-03;1;     1.074;  8833.748;    310.251; 1;    310.251;   8839.194;   8844.631;     10.883;251;   5.042;  54.670;;; 149.212;  61.304;   7.873;  63.581;  63.387;  25.469;   5.005;   1.057;  -1.979;   4.516;;;;;;;;;;;;;;;;;;
2016-12-04T07:41:55.440Z;0;1.3380e-03;1;     1.027;  8881.684;    328.530; 1;    328.530;   8887.758;   8893.819;     12.136;251;   5.032;  54.986;;; 149.528;  61.609;   7.892;  63.572;  63.378;  25.404;   4.995;   1.065;  -1.971;   4.506;;;;;;;;;;;;;;;;;;
2016-12-04T07:42:59.439Z;0;1.1490e-03;1;     1.095;  8929.984;    304.387; 1;    304.387;   8935.170;   8940.348;     10.363;251;   5.022;  55.301;;; 149.842;  61.913;   7.911;  63.562;  63.368;  25.337;   4.985;   1.073;  -1.962;   4.497;;;;;;;;;;;;;;;;;;
2016-12-04T07:44:03.439Z;0;1.1940e-03;1;     0.535;  9027.788;    310.251; 1;    310.251;   9033.117;   9038.438;     10.650;251;   5.013;  55.615;;; 150.154;  62.214;   7.930;  63.552;  63.357;  25.270;   4.975;   1.081;  -1.953;   4.488;;;;;;;;;;;;;;;;;;
2016-12-04T07:45:07.438Z;0;1.2880e-03;1;     0.297;  9077.096;    322.320; 1;    322.320;   9082.817;   9088.527;     11.431;251;   5.003;  55.929;;; 150.464;  62.513;   7.949;  63.542;  63.346;  25.201;   4.965;   1.089;  -1.945;   4.479;;;;;;;;;;;;;;;;;;
2016-12-04T07:46:11.438Z;0;1.1940e-03;1;     0.535;  9126.824;    310.251; 1;    310.251;   9132.096;   9137.358;     10.534;251;   4.993;  56.241;;; 150.772;  62.810;   7.968;  63.530;  63.334;  25.131;   4.956;   1.097;  -1.936;   4.469;;;;;;;;;;;;;;;;;;
2016-12-04T07:47:15.438Z;0;1.2400e-03;1;     0.225;  9176.859;    316.228; 1;    316.228;   9182.307;   9187.744;     10.884;251;   4.983;  56.552;;; 151.078;  63.105;   7.988;  63.518;  63.322;  25.061;   4.946;   1.105;  -1.928;   4.460;;;;;;;;;;;;;;;;;;
2016-12-04T07:48:19.437Z;0;1.1060e-03;1;     0.236;  9227.372;    298.633; 1;    298.633;   9232.203;   9237.027;      9.655;251;   4.973;  56.862;;; 151.381;  63.398;   8.007;  63.506;  63.309;  24.989;   4.936;   1.113;  -1.919;   4.451;;;;;;;;;;;;;;;;;;
2016-12-04T07:49:23.437Z;0;1.1940e-03;1;     0.535;  9278.220;    310.251; 1;    310.251;   9283.405;   9288.583;     10.363;251;   4.963;  57.172;;; 151.683;  63.689;   8.026;  63.493;  63.295;  24.916;   4.926;   1.121;  -1.911;   4.441;;;;;;;;;;;;;;;;;;
2016-12-04T07:50:27.436Z;0;1.1490e-03;1;     0.234;  9329.349;    304.387; 1;    304.387;   9334.312;   9339.269;      9.921;251;   4.953;  57.481;;; 151.985;  63.982;   8.046;  63.479;  63.281;  24.843;   4.916;   1.129;  -1.902;   4.432;;;;;;;;;;;;;;;;;;
2016-12-04T07:51:31.436Z;0;1.1060e-03;1;     0.473;  9380.812;    298.633; 1;    298.633;   9385.564;   9390.309;      9.497;251;   4.943;  57.788;;; 152.289;  64.282;   8.065;  63.464;  63.266;  24.768;   4.906;   1.137;  -1.893;   4.423;;;;;;;;;;;;;;;;;;
2016-12-04T07:52:35.436Z;0;1.1490e-03;1;     0.546;  9432.864;    304.387; 1;    304.387;   9437.773;   9442.676;      9.812;251;   4.933;  58.095;;; 152.592;  64.582;   8.085;  63.449;  63.251;  24.692;   4.896;   1.145;  -1.885;   4.413;;;;;;;;;;;;;;;;;;
2016-12-04T07:53:39.435Z;0;1.5590e-03;1;     0.273;  9485.141;    354.588; 1;    354.588;   9491.766;   9498.377;     13.237;251;   4.924;  58.401;;; 152.894;  64.883;   8.105;  63.434;  63.234;  24.616;   4.886;   1.153;  -1.876;   4.404;;;;;;;;;;;;;;;;;;
2016-12-04T07:54:43.435Z;0;1.6830e-03;1;     0.266;  9537.641;    368.382; 1;    368.382;   9544.752;   9551.848;     14.207;251;   4.914;  58.706;;; 153.196;  65.183;   8.124;  63.417;  63.217;  24.538;   4.876;   1.161;  -1.867;   4.394;;;;;;;;;;;;;;;;;;
2016-12-04T07:55:47.434Z;0;1.5590e-03;1;     0.546;  9590.672;    354.588; 1;    354.588;   9597.225;   9603.764;     13.092;251;   4.904;  59.011;;; 153.496;  65.484;   8.144;  63.400;  63.200;  24.459;   4.867;   1.169;  -1.859;   4.385;;;;;;;;;;;;;;;;;;
2016-12-04T07:56:51.434Z;0;1.5590e-03;1;     0.273;  9644.012;    354.588; 1;    354.588;   9650.528;   9657.031;     13.020;251;   4.894;  59.314;;; 153.796;  65.785;   8.164;  63.382;  63.181;  24.379;   4.857;   1.177;  -1.850;   4.375;;;;;;;;;;;;;;;;;;
2016-12-04T07:57:55.434Z;0;1.5590e-03;1;     0.273;  9697.855;    354.588; 1;    354.588;   9704.336;   9710.804;     12.948;251;   4.884;  59.617;;; 154.095;  66.086;   8.184;  63.364;  63.162;  24.299;   4.847;   1.185;  -1.841;   4.366;;;;;;;;;;;;;;;;;;
2016-12-04T07:58:59.433Z;0;2.5610e-03;1;     0.280;  9752.035;    454.421; 1;    454.421;   9762.617;   9773.165;     21.129;251;   4.874;  59.919;;; 154.393;  66.388;   8.204;  63.344;  63.142;  24.217;   4.837;   1.193;  -1.833;   4.356;;;;;;;;;;;;;;;;;;
2016-12-04T08:00:03.433Z;0;3.2200e-03;1;     0.257;  9861.349;    509.545; 1;    509.545;   9874.504;   9887.607;     26.259;251;   4.864;  60.220;;; 154.690;  66.690;   8.224;  63.324;  63.122;  24.134;   4.827;   1.201;  -1.824;   4.346;;;;;;;;;;;;;;;;;;
2016-12-04T08:01:07.432Z;0;2.9830e-03;1;     0.262;  9916.704;    490.465; 1;    490.465;   9928.825;   9940.902;     24.199;251;   4.854;  60.520;;; 154.986;  66.986;   8.244;  63.304;  63.101;  24.051;   4.817;   1.209;  -1.815;   4.337;;;;;;;;;;;;;;;;;;
2016-12-04T08:02:11.432Z;0;2.8710e-03;1;     0.267;  9972.312;    481.194; 1;    481.194;   9983.914;   9995.477;     23.165;251;   4.844;  60.819;;; 155.282;  67.282;   8.264;  63.282;  63.079;  23.966;   4.807;   1.217;  -1.806;   4.327;;;;;;;;;;;;;;;;;;
2016-12-04T08:03:15.432Z;0;2.8710e-03;1;     0.267; 10028.368;    481.194; 1;    481.194;  10039.906;  10051.404;     23.036;251;   4.834;  61.118;;; 155.577;  67.577;   8.284;  63.260;  63.056;  23.880;   4.797;   1.225;  -1.798;   4.317;;;;;;;;;;;;;;;;;;
2016-12-04T08:04:19.431Z;0;2.5610e-03;1;     0.280; 10084.816;    454.421; 1;    454.421;  10095.049;  10105.251;     20.435;251;   4.824;  61.416;;; 155.871;  67.871;   8.304;  63.238;  63.033;  23.794;   4.787;   1.232;  -1.789;   4.308;;;;;;;;;;;;;;;;;;
2016-12-04T08:05:23.431Z;0;2.3730e-03;1;     0.229; 10141.853;    437.405; 1;    437.405;  10151.280;  10160.683;     18.830;251;   4.815;  61.713;;; 156.164;  68.164;   8.324;  63.214;  63.009;  23.706;   4.777;   1.240;  -1.780;   4.298;;;;;;;;;;;;;;;;;;
2016-12-04T08:06:27.430Z;0;2.9830e-03;1;     0.262; 10199.195;    490.465; 1;    490.465;  10210.981;  10222.728;     23.531;251;   4.805;  62.009;;; 156.457;  68.457;   8.344;  63.190;  62.984;  23.617;   4.768;   1.248;  -1.771;   4.288;;;;;;;;;;;;;;;;;;
2016-12-04T08:07:31.430Z;0;3.0990e-03;1;     0.257; 10256.708;    499.914; 1;    499.914;  10268.884;  10281.017;     24.308;251;   4.795;  62.305;;; 156.748;  68.748;   8.365;  63.165;  62.958;  23.528;   4.758;   1.256;  -1.763;   4.278;;;;;;;;;;;;;;;;;;
2016-12-04T08:08:35.429Z;0;2.2840e-03;1;     0.234; 10314.752;    429.138; 1;    429.138;  10323.675;  10332.575;     17.823;251;   4.785;  62.600;;; 157.039;  69.039;   8.385;  63.139;  62.932;  23.437;   4.748;   1.264;  -1.754;   4.268;;;;;;;;;;;;;;;;;;
2016-12-04T08:09:39.429Z;0;2.0370e-03;1;     0.489; 10373.412;    405.261; 1;    405.261;  10381.325;  10389.221;     15.808;251;   4.775;  62.894;;; 157.329;  69.329;   8.406;  63.112;  62.904;  23.346;   4.738;   1.272;  -1.745;   4.259;;;;;;;;;;;;;;;;;;
2016-12-04T08:10:43.429Z;0;1.7480e-03;1;     1.050; 10432.212;    375.479; 1;    375.479;  10438.967;  10445.709;     13.497;251;   4.765;  63.188;;; 157.619;  69.615;   8.426;  63.085;  62.876;  23.253;   4.728;   1.280;  -1.736;   4.249;;;;;;;;;;;;;;;;;;
2016-12-04T08:11:47.428Z;0;1.5590e-03;1;     0.273; 10491.488;    354.588; 1;    354.588;  10497.479;  10503.459;     11.971;251;   4.755;  63.480;;; 157.908;  69.898;   8.447;  63.057;  62.848;  23.160;   4.718;   1.288;  -1.727;   4.239;;;;;;;;;;;;;;;;;;
2016-12-04T08:12:51.428Z;0;1.4450e-03;1;     0.280; 10551.296;    341.310; 1;    341.310;  10556.814;  10562.325;     11.029;251;   4.745;  63.772;;; 158.197;  70.178;   8.467;  63.028;  62.818;  23.066;   4.708;   1.296;  -1.718;   4.229;;;;;;;;;;;;;;;;;;
2016-12-04T08:13:55.427Z;0;1.5590e-03;1;     0.273; 10611.553;    354.588; 1;    354.588;  10617.475;  10623.388;     11.835;251;   4.735;  64.064;;; 158.484;  70.457;   8.488;  62.998;  62.788;  22.970;   4.698;   1.303;  -1.710;   4.219;;;;;;;;;;;;;;;;;;
2016-12-04T08:14:59.427Z;0;1.8160e-03;1;     0.768; 10672.229;    382.713; 1;    382.713;  10679.088;  10685.935;     13.707;251;   4.725;  64.355;;; 158.771;  70.734;   8.508;  62.967;  62.756;  22.874;   4.688;   1.311;  -1.701;   4.209;;;;;;;;;;;;;;;;;;
2016-12-04T08:16:03.427Z;0;1.8870e-03;1;     0.251; 10795.792;    390.086; 1;    390.086;  10802.837;  10809.868;     14.077;251;   4.715;  64.645;;; 159.057;  71.009;   8.529;  62.936;  62.724;  22.777;   4.678;   1.319;  -1.692;   4.199;;;;;;;;;;;;;;;;;;
2016-12-04T08:17:07.426Z;0;1.6200e-03;1;     0.268; 10856.468;    361.419; 1;    361.419;  10862.481;  10868.486;     12.019;251;   4.705;  64.934;;; 159.343;  71.282;   8.550;  62.904;  62.691;  22.679;   4.668;   1.327;  -1.683;   4.189;;;;;;;;;;;;;;;;;;
2016-12-04T08:18:11.426Z;0;1.6200e-03;1;     0.739; 10918.880;    361.419; 1;    361.419;  10924.859;  10930.830;     11.950;251;   4.695;  65.223;;; 159.628;  71.553;   8.571;  62.871;  62.658;  22.581;   4.658;   1.335;  -1.674;   4.179;;;;;;;;;;;;;;;;;;
2016-12-04T08:19:15.425Z;0;1.8870e-03;1;     0.251; 10981.739;    390.086; 1;    390.086;  10988.666;  10995.578;     13.839;251;   4.685;  65.511;;; 159.912;  71.823;   8.591;  62.837;  62.623;  22.481;   4.648;   1.342;  -1.665;   4.168;;;;;;;;;;;;;;;;;;
2016-12-04T08:20:19.425Z;0;1.6830e-03;1;     1.070; 11044.853;    368.382; 1;    368.382;  11050.994;  11057.126;     12.273;251;   4.675;  65.799;;; 160.196;  72.094;   8.612;  62.803;  62.588;  22.380;   4.638;   1.350;  -1.656;   4.158;;;;;;;;;;;;;;;;;;
2016-12-04T08:21:23.425Z;0;1.3910e-03;1;     0.502; 11108.440;    334.859; 1;    334.859;  11113.486;  11118.525;     10.085;251;   4.665;  66.086;;; 160.479;  72.373;   8.633;  62.767;  62.552;  22.279;   4.628;   1.358;  -1.647;   4.148;;;;;;;;;;;;;;;;;;
2016-12-04T08:22:27.424Z;0;1.4450e-03;1;     0.280; 11172.588;    341.310; 1;    341.310;  11177.800;  11183.005;     10.417;251;   4.655;  66.372;;; 160.762;  72.652;   8.654;  62.731;  62.515;  22.177;   4.619;   1.366;  -1.638;   4.138;;;;;;;;;;;;;;;;;;
2016-12-04T08:23:31.424Z;0;1.2400e-03;1;     0.225; 11237.212;    316.228; 1;    316.228;  11241.661;  11246.104;      8.892;251;   4.645;  66.658;;; 161.044;  72.932;   8.675;  62.693;  62.477;  22.074;   4.609;   1.374;  -1.629;   4.128;;;;;;;;;;;;;;;;;;
2016-12-04T08:24:35.423Z;0;1.1940e-03;1;     0.229; 11302.145;    310.251; 1;    310.251;  11306.401;  11310.654;      8.510;251;   4.635;  66.944;;; 161.325;  73.213;   8.696;  62.655;  62.438;  21.970;   4.599;   1.381;  -1.620;   4.117;;;;;;;;;;;;;;;;;;
2016-12-04T08:25:39.423Z;0;1.1940e-03;1;     0.229; 11367.440;    310.251; 1;    310.251;  11371.674;  11375.901;      8.461;251;   4.626;  67.228;;; 161.606;  73.494;   8.717;  62.616;  62.398;  21.865;   4.589;   1.389;  -1.611;   4.107;;;;;;;;;;;;;;;;;;
2016-12-04T08:26:43.423Z;0;1.1490e-03;1;     0.234; 11433.632;    304.387; 1;    304.387;  11437.683;  11441.729;      8.098;251;   4.616;  67.513;;; 161.887;  73.776;   8.738;  62.577;  62.357;  21.759;   4.579;   1.397;  -1.602;   4.097;;;;;;;;;;;;;;;;;;
2016-12-04T08:27:47.422Z;0;1.1940e-03;1;     0.229; 11499.965;    310.251; 1;    310.251;  11504.148;  11508.328;      8.364;251;   4.606;  67.797;;; 162.167;  74.058;   8.759;  62.536;  62.316;  21.653;   4.569;   1.405;  -1.593;   4.086;;;;;;;;;;;;;;;;;;
2016-12-04T08:28:51.422Z;0;1.2400e-03;1;     0.526; 11566.771;    316.228; 1;    316.228;  11571.094;  11575.411;      8.639;251;   4.596;  68.080;;; 162.446;  74.341;   8.781;  62.494;  62.274;  21.546;   4.559;   1.412;  -1.584;   4.076;;;;;;;;;;;;;;;;;;
2016-12-04T08:29:55.421Z;0;1.1940e-03;1;     0.229; 11634.141;    310.251; 1;    310.251;  11638.276;  11642.408;      8.268;251;   4.586;  68.363;;; 162.724;  74.624;   8.802;  62.452;  62.230;  21.438;   4.549;   1.420;  -1.575;   4.066;;;;;;;;;;;;;;;;;;